Location: Peebles
(55.6412°N, 3.1714°W)
Time: 17:07:07
(UTC+01:00)

RS-15 - Pass Details

Date: 04 December 2023
Orbit: 1898 x 2146 km, 64.8° (Epoch: 02 October)

Event Time Altitude Azimuth Distance (km) Brightness Sun altitude
Exits shadow 05:23:47 27° 307° (NW) 3,284 8.7 -23.6°
Maximum altitude 05:30:51 65° 236° (SW) 2,117 7.9 -22.6°
Drops below altitude 10° 05:41:38 10° 158° (SSE) 4,300 10.2 -21.1°
Sets 05:44:52 0° 156° (SSE) 5,282 10.8 -20.6°
